Tracking 29892 objects as of 21-Nov-2024
HD Live streaming from Space Station
objects crossing your sky now

SL-6 R/B(2)

Track SL-6 R/B(2) now!


NORAD ID: 25850
Int'l Code: 1999-036D
Perigee: 1,166.4 km
Apogee: 39,907.0 km
Inclination: 63.6 °
Period: 732.1 minutes
Semi major axis: 26907 km
RCS: 2 m2 (large)
Launch date: July 8, 1999
Source: Commonwealth of Independent States (former USSR) (CIS)
Launch site: PLESETSK MISSILE AND SPACE COMPLEX (PKMTR)

Note: This is a ROCKET BODY
Your satellite tracking list
Your tracking list is empty




NASA's NSSDC Master Catalog

Two Line Element Set (TLE):
1 25850U 99036D   24325.81317955 -.00000265  00000-0 -50663-3 0  9990
2 25850  63.6353 268.4814 7198798 284.2373  11.3121  1.96692530182077
Source of the keplerian elements: AFSPC